contact:dominique.lefevre@mio.osupytheas.fr, maurice.libes@osupytheas.fr, didier.mallarino@osupytheas.fr
Project:EMSO http://www.emso-fr.org/EMSO-France
Depth: 2436.0 m
Title:EMSO Ligure Ouest : Data MII capteur CSTAR
DateTime,Latitude,Longitude,Instrument_Serial,Reference_Counts,Signal_Counts,Corrected_Signal_raw_counts,Calculated_Beam_c_inverse_meters,Internal_thermistor_counts
DateTime,Latitude,Longitude,Instrument_Serial,Reference_Counts,Signal_Counts,Corrected_Signal_raw_counts,Calculated_Beam_c_inverse_meters,Internal_thermistor_counts
2023-06-12T00:01:36,42.805,6.029,CST-1368DR,4291,4684,11587,01.194,552
2023-06-12T00:04:38,42.805,6.029,CST-1368DR,4291,4686,11593,01.192,552
2023-06-12T00:07:39,42.805,6.029,CST-1368DR,4291,4685,11590,01.193,552
2023-06-12T00:10:41,42.805,6.029,CST-1368DR,4291,4686,11593,01.192,552
2023-06-12T00:13:43,42.805,6.029,CST-1368DR,4291,4685,11589,01.193,552
2023-06-12T00:16:44,42.805,6.029,CST-1368DR,4291,4685,11590,01.193,552
2023-06-12T00:19:46,42.805,6.029,CST-1368DR,4291,4686,11593,01.192,552
2023-06-12T00:22:47,42.805,6.029,CST-1368DR,4291,4686,11592,01.192,552
2023-06-12T00:25:49,42.805,6.029,CST-1368DR,4291,4685,11589,01.193,552
2023-06-12T00:28:51,42.805,6.029,CST-1368DR,4291,4682,11583,01.195,552
2023-06-12T00:31:52,42.805,6.029,CST-1368DR,4291,4687,11594,01.191,552
2023-06-12T00:34:54,42.805,6.029,CST-1368DR,4291,4687,11595,01.191,552
2023-06-12T00:37:55,42.805,6.029,CST-1368DR,4291,4685,11591,01.192,552
2023-06-12T00:40:57,42.805,6.029,CST-1368DR,4291,4687,11595,01.191,552
2023-06-12T00:43:58,42.805,6.029,CST-1368DR,4291,4687,11596,01.191,552
2023-06-12T00:47:00,42.805,6.029,CST-1368DR,4291,4686,11593,01.192,552
2023-06-12T00:50:02,42.805,6.029,CST-1368DR,4291,4686,11594,01.191,552
2023-06-12T00:53:03,42.805,6.029,CST-1368DR,4291,4687,11596,01.191,552
2023-06-12T00:56:05,42.805,6.029,CST-1368DR,4291,4687,11594,01.191,552
2023-06-12T00:59:06,42.805,6.029,CST-1368DR,4291,4687,11596,01.191,552
2023-06-12T01:02:08,42.805,6.029,CST-1368DR,4291,4685,11591,01.192,552
2023-06-12T01:05:09,42.805,6.029,CST-1368DR,4291,4686,11592,01.192,552
2023-06-12T01:08:11,42.805,6.029,CST-1368DR,4291,4686,11593,01.192,552
2023-06-12T01:11:13,42.805,6.029,CST-1368DR,4291,4686,11594,01.191,552
2023-06-12T01:14:14,42.805,6.029,CST-1368DR,4291,4686,11594,01.191,552
2023-06-12T01:17:16,42.805,6.029,CST-1368DR,4291,4686,11592,01.192,552
2023-06-12T01:20:17,42.805,6.029,CST-1368DR,4291,4688,11597,01.190,552
2023-06-12T01:23:19,42.805,6.029,CST-1368DR,4291,4689,11600,01.189,552
2023-06-12T01:26:21,42.805,6.029,CST-1368DR,4291,4685,11590,01.193,552
2023-06-12T01:29:22,42.805,6.029,CST-1368DR,4291,4685,11591,01.192,552
2023-06-12T01:32:24,42.805,6.029,CST-1368DR,4291,4688,11597,01.190,552
2023-06-12T01:35:25,42.805,6.029,CST-1368DR,4291,4688,11598,01.190,552
2023-06-12T01:38:27,42.805,6.029,CST-1368DR,4291,4688,11598,01.190,552
2023-06-12T01:41:28,42.805,6.029,CST-1368DR,4291,4686,11593,01.192,552
2023-06-12T01:44:30,42.805,6.029,CST-1368DR,4291,4687,11596,01.191,552
2023-06-12T01:47:32,42.805,6.029,CST-1368DR,4291,4686,11592,01.192,552
2023-06-12T01:50:33,42.805,6.029,CST-1368DR,4291,4683,11586,01.194,552
2023-06-12T01:53:35,42.805,6.029,CST-1368DR,4291,4682,11584,01.195,552
2023-06-12T01:56:36,42.805,6.029,CST-1368DR,4291,4680,11579,01.196,552
2023-06-12T01:59:38,42.805,6.029,CST-1368DR,4291,4682,11583,01.195,552
2023-06-12T02:02:39,42.805,6.029,CST-1368DR,4291,4683,11585,01.194,552
2023-06-12T02:05:41,42.805,6.029,CST-1368DR,4291,4684,11588,01.193,552
2023-06-12T02:08:43,42.805,6.029,CST-1368DR,4291,4686,11594,01.191,552
2023-06-12T02:11:44,42.805,6.029,CST-1368DR,4291,4683,11586,01.194,552
2023-06-12T02:14:46,42.805,6.029,CST-1368DR,4291,4685,11591,01.192,552
2023-06-12T02:17:47,42.805,6.029,CST-1368DR,4291,4686,11592,01.192,552
2023-06-12T02:20:49,42.805,6.029,CST-1368DR,4291,4686,11594,01.191,552
2023-06-12T02:23:51,42.805,6.029,CST-1368DR,4291,4685,11591,01.192,552
2023-06-12T02:26:52,42.805,6.029,CST-1368DR,4291,4686,11594,01.191,552
2023-06-12T02:29:54,42.805,6.029,CST-1368DR,4291,4685,11591,01.192,552
2023-06-12T02:32:55,42.805,6.029,CST-1368DR,4291,4688,11597,01.190,552
2023-06-12T02:35:57,42.805,6.029,CST-1368DR,4291,4687,11596,01.191,552
2023-06-12T02:38:58,42.805,6.029,CST-1368DR,4291,4687,11596,01.191,552
2023-06-12T02:42:00,42.805,6.029,CST-1368DR,4291,4687,11595,01.191,552
2023-06-12T02:45:02,42.805,6.029,CST-1368DR,4291,4687,11596,01.191,552
2023-06-12T02:48:03,42.805,6.029,CST-1368DR,4291,4682,11583,01.195,552
2023-06-12T02:51:05,42.805,6.029,CST-1368DR,4291,4685,11589,01.193,552
2023-06-12T02:54:06,42.805,6.029,CST-1368DR,4291,4686,11593,01.192,552
2023-06-12T02:57:08,42.805,6.029,CST-1368DR,4291,4686,11592,01.192,552
2023-06-12T03:00:09,42.805,6.029,CST-1368DR,4291,4685,11590,01.193,552
2023-06-12T03:03:11,42.805,6.029,CST-1368DR,4291,4687,11596,01.191,552
2023-06-12T03:06:13,42.805,6.029,CST-1368DR,4291,4687,11596,01.191,552
2023-06-12T03:09:14,42.805,6.029,CST-1368DR,4291,4685,11589,01.193,552
2023-06-12T03:12:16,42.805,6.029,CST-1368DR,4291,4682,11584,01.195,552
2023-06-12T03:15:17,42.805,6.029,CST-1368DR,4291,4684,11588,01.193,552
2023-06-12T03:18:19,42.805,6.029,CST-1368DR,4291,4685,11590,01.193,552
2023-06-12T03:21:20,42.805,6.029,CST-1368DR,4291,4685,11589,01.193,552
2023-06-12T03:24:22,42.805,6.029,CST-1368DR,4291,4688,11597,01.190,552
2023-06-12T03:27:24,42.805,6.029,CST-1368DR,4291,4682,11583,01.195,552
2023-06-12T03:30:25,42.805,6.029,CST-1368DR,4291,4683,11586,01.194,552
2023-06-12T03:33:27,42.805,6.029,CST-1368DR,4291,4680,11578,01.197,552
2023-06-12T03:36:28,42.805,6.029,CST-1368DR,4291,4684,11589,01.193,552
2023-06-12T03:39:30,42.805,6.029,CST-1368DR,4291,4682,11584,01.195,552
2023-06-12T03:42:32,42.805,6.029,CST-1368DR,4291,4684,11587,01.194,552
2023-06-12T03:45:33,42.805,6.029,CST-1368DR,4291,4685,11590,01.193,552
2023-06-12T03:48:35,42.805,6.029,CST-1368DR,4291,4686,11592,01.192,552
2023-06-12T03:51:36,42.805,6.029,CST-1368DR,4291,4683,11584,01.195,551
2023-06-12T03:54:38,42.805,6.029,CST-1368DR,4291,4684,11589,01.193,552
2023-06-12T03:57:39,42.805,6.029,CST-1368DR,4291,4686,11594,01.191,552
2023-06-12T04:00:41,42.805,6.029,CST-1368DR,4291,4688,11599,01.190,552
2023-06-12T04:03:43,42.805,6.029,CST-1368DR,4291,4687,11594,01.191,552
2023-06-12T04:06:44,42.805,6.029,CST-1368DR,4291,4689,11600,01.189,552
2023-06-12T04:09:46,42.805,6.029,CST-1368DR,4291,4685,11590,01.193,552
2023-06-12T04:12:47,42.805,6.029,CST-1368DR,4291,4688,11597,01.190,552
2023-06-12T04:15:49,42.805,6.029,CST-1368DR,4291,4690,11602,01.188,552
2023-06-12T04:18:51,42.805,6.029,CST-1368DR,4291,4686,11593,01.192,552
2023-06-12T04:21:52,42.805,6.029,CST-1368DR,4291,4687,11596,01.191,552
2023-06-12T04:24:54,42.805,6.029,CST-1368DR,4291,4686,11592,01.192,552
2023-06-12T04:27:55,42.805,6.029,CST-1368DR,4291,4685,11590,01.193,552
2023-06-12T04:30:57,42.805,6.029,CST-1368DR,4291,4686,11592,01.192,552
2023-06-12T04:33:58,42.805,6.029,CST-1368DR,4291,4686,11592,01.192,552
2023-06-12T04:37:00,42.805,6.029,CST-1368DR,4291,4686,11592,01.192,552
2023-06-12T04:40:02,42.805,6.029,CST-1368DR,4291,4684,11588,01.193,552
2023-06-12T04:43:03,42.805,6.029,CST-1368DR,4291,4683,11585,01.194,552
2023-06-12T04:46:05,42.805,6.029,CST-1368DR,4291,4686,11594,01.191,552
2023-06-12T04:49:06,42.805,6.029,CST-1368DR,4291,4683,11584,01.195,552
2023-06-12T04:52:08,42.805,6.029,CST-1368DR,4291,4683,11586,01.194,552
2023-06-12T04:55:09,42.805,6.029,CST-1368DR,4291,4682,11584,01.195,552
2023-06-12T04:58:11,42.805,6.029,CST-1368DR,4291,4685,11591,01.192,552
2023-06-12T05:01:13,42.805,6.029,CST-1368DR,4291,4686,11592,01.192,552
2023-06-12T05:04:14,42.805,6.029,CST-1368DR,4291,4686,11592,01.192,552
2023-06-12T05:07:16,42.805,6.029,CST-1368DR,4291,4686,11592,01.192,552
2023-06-12T05:10:17,42.805,6.029,CST-1368DR,4291,4686,11593,01.192,552
2023-06-12T05:13:19,42.805,6.029,CST-1368DR,4291,4685,11590,01.193,552
2023-06-12T05:16:20,42.805,6.029,CST-1368DR,4291,4685,11591,01.192,552
2023-06-12T05:19:22,42.805,6.029,CST-1368DR,4291,4687,11594,01.191,552
2023-06-12T05:22:24,42.805,6.029,CST-1368DR,4291,4681,11581,01.196,552
2023-06-12T05:25:25,42.805,6.029,CST-1368DR,4291,4685,11591,01.192,552
2023-06-12T05:28:27,42.805,6.029,CST-1368DR,4291,4684,11587,01.194,552
2023-06-12T05:31:28,42.805,6.029,CST-1368DR,4291,4685,11589,01.193,552
2023-06-12T05:34:30,42.805,6.029,CST-1368DR,4291,4683,11585,01.194,552
2023-06-12T05:37:32,42.805,6.029,CST-1368DR,4291,4683,11586,01.194,552
2023-06-12T05:40:33,42.805,6.029,CST-1368DR,4291,4685,11591,01.192,552
2023-06-12T05:43:35,42.805,6.029,CST-1368DR,4291,4685,11591,01.192,552
2023-06-12T05:46:36,42.805,6.029,CST-1368DR,4291,4681,11581,01.196,552
2023-06-12T05:49:38,42.805,6.029,CST-1368DR,4291,4685,11590,01.193,552
2023-06-12T05:52:39,42.805,6.029,CST-1368DR,4291,4685,11590,01.193,552
2023-06-12T05:55:41,42.805,6.029,CST-1368DR,4291,4681,11581,01.196,552
2023-06-12T05:58:43,42.805,6.029,CST-1368DR,4291,4684,11589,01.193,552
2023-06-12T06:01:44,42.805,6.029,CST-1368DR,4291,4684,11588,01.193,552
2023-06-12T06:04:46,42.805,6.029,CST-1368DR,4291,4686,11592,01.192,552
2023-06-12T06:07:47,42.805,6.029,CST-1368DR,4291,4684,11587,01.194,552
2023-06-12T06:10:49,42.805,6.029,CST-1368DR,4291,4686,11593,01.192,552
2023-06-12T06:13:50,42.805,6.029,CST-1368DR,4291,4685,11589,01.193,552
2023-06-12T06:16:52,42.805,6.029,CST-1368DR,4291,4688,11597,01.190,552
2023-06-12T06:19:54,42.805,6.029,CST-1368DR,4291,4687,11596,01.191,552
2023-06-12T06:22:55,42.805,6.029,CST-1368DR,4291,4690,11602,01.188,552
2023-06-12T06:25:57,42.805,6.029,CST-1368DR,4291,4683,11586,01.194,552
2023-06-12T06:28:58,42.805,6.029,CST-1368DR,4291,4686,11592,01.192,552
2023-06-12T06:32:02,42.805,6.029,CST-1368DR,4291,4691,11605,01.187,552
2023-06-12T06:35:04,42.805,6.029,CST-1368DR,4291,4685,11590,01.193,552
2023-06-12T06:38:05,42.805,6.029,CST-1368DR,4291,4687,11594,01.191,552
2023-06-12T06:41:07,42.805,6.029,CST-1368DR,4291,4684,11589,01.193,552
2023-06-12T06:44:09,42.805,6.029,CST-1368DR,4291,4687,11595,01.191,552
2023-06-12T06:47:10,42.805,6.029,CST-1368DR,4291,4688,11597,01.190,552
2023-06-12T06:50:12,42.805,6.029,CST-1368DR,4291,4684,11588,01.193,552
2023-06-12T06:53:13,42.805,6.029,CST-1368DR,4291,4686,11594,01.191,552
2023-06-12T06:56:15,42.805,6.029,CST-1368DR,4291,4685,11591,01.192,552
2023-06-12T06:59:16,42.805,6.029,CST-1368DR,4291,4686,11593,01.192,552
2023-06-12T07:02:18,42.805,6.029,CST-1368DR,4291,4685,11589,01.193,552
2023-06-12T07:05:20,42.805,6.029,CST-1368DR,4291,4686,11594,01.191,552
2023-06-12T07:08:21,42.805,6.029,CST-1368DR,4291,4689,11600,01.189,552
2023-06-12T07:11:23,42.805,6.029,CST-1368DR,4291,4688,11598,01.190,552
2023-06-12T07:14:24,42.805,6.029,CST-1368DR,4291,4686,11594,01.191,552
2023-06-12T07:17:26,42.805,6.029,CST-1368DR,4291,4686,11594,01.191,552
2023-06-12T07:20:28,42.805,6.029,CST-1368DR,4291,4689,11600,01.189,552
2023-06-12T07:23:29,42.805,6.029,CST-1368DR,4291,4688,11598,01.190,552
2023-06-12T07:26:31,42.805,6.029,CST-1368DR,4291,4686,11594,01.191,552
2023-06-12T07:29:32,42.805,6.029,CST-1368DR,4291,4687,11596,01.191,552
2023-06-12T07:32:34,42.805,6.029,CST-1368DR,4291,4689,11600,01.189,552
2023-06-12T07:35:35,42.805,6.029,CST-1368DR,4291,4686,11592,01.192,552
2023-06-12T07:38:37,42.805,6.029,CST-1368DR,4291,4685,11591,01.192,552
2023-06-12T07:41:39,42.805,6.029,CST-1368DR,4291,4684,11587,01.194,552
2023-06-12T07:44:40,42.805,6.029,CST-1368DR,4291,4685,11591,01.192,552
2023-06-12T07:47:42,42.805,6.029,CST-1368DR,4291,4684,11589,01.193,552
2023-06-12T07:50:43,42.805,6.029,CST-1368DR,4291,4686,11594,01.191,552
2023-06-12T07:53:45,42.805,6.029,CST-1368DR,4291,4689,11599,01.190,552
2023-06-12T07:56:46,42.805,6.029,CST-1368DR,4291,4687,11594,01.191,552
2023-06-12T07:59:48,42.805,6.029,CST-1368DR,4291,4687,11596,01.191,552
2023-06-12T08:02:50,42.805,6.029,CST-1368DR,4291,4684,11589,01.193,552
2023-06-12T08:05:51,42.805,6.029,CST-1368DR,4291,4683,11586,01.194,552
2023-06-12T08:08:53,42.805,6.029,CST-1368DR,4291,4686,11594,01.191,552
2023-06-12T08:11:54,42.805,6.029,CST-1368DR,4291,4689,11599,01.190,552
2023-06-12T08:14:56,42.805,6.029,CST-1368DR,4291,4687,11595,01.191,552
2023-06-12T08:17:58,42.805,6.029,CST-1368DR,4291,4685,11591,01.192,552
2023-06-12T08:20:59,42.805,6.029,CST-1368DR,4291,4683,11585,01.194,552
2023-06-12T08:24:01,42.805,6.029,CST-1368DR,4291,4684,11589,01.193,552
2023-06-12T08:27:02,42.805,6.029,CST-1368DR,4291,4681,11581,01.196,552
2023-06-12T08:30:07,42.805,6.029,CST-1368DR,4291,4680,11577,01.197,552
2023-06-12T08:33:05,42.805,6.029,CST-1368DR,4291,4685,11591,01.192,552
2023-06-12T08:36:07,42.805,6.029,CST-1368DR,4291,4687,11595,01.191,552
2023-06-12T08:39:08,42.805,6.029,CST-1368DR,4291,4684,11589,01.193,552
2023-06-12T08:42:10,42.805,6.029,CST-1368DR,4291,4685,11590,01.193,552
2023-06-12T08:45:11,42.805,6.029,CST-1368DR,4291,4686,11592,01.192,552
2023-06-12T08:48:13,42.805,6.029,CST-1368DR,4291,4685,11589,01.193,552
2023-06-12T08:51:14,42.805,6.029,CST-1368DR,4291,4685,11591,01.192,552
2023-06-12T08:54:16,42.805,6.029,CST-1368DR,4291,4682,11582,01.195,552
2023-06-12T08:57:18,42.805,6.029,CST-1368DR,4291,4685,11591,01.192,552
2023-06-12T09:00:19,42.805,6.029,CST-1368DR,4291,4687,11594,01.191,552
2023-06-12T09:03:21,42.805,6.029,CST-1368DR,4291,4685,11590,01.193,552
2023-06-12T09:06:22,42.805,6.029,CST-1368DR,4291,4686,11594,01.191,552
2023-06-12T09:09:24,42.805,6.029,CST-1368DR,4291,4682,11583,01.195,552
2023-06-12T09:12:26,42.805,6.029,CST-1368DR,4291,4684,11589,01.193,552
2023-06-12T09:15:27,42.805,6.029,CST-1368DR,4291,4683,11585,01.194,552
2023-06-12T09:18:29,42.805,6.029,CST-1368DR,4291,4682,11582,01.195,552
2023-06-12T09:21:30,42.805,6.029,CST-1368DR,4291,4684,11588,01.193,552
2023-06-12T09:24:32,42.805,6.029,CST-1368DR,4291,4685,11591,01.192,552
2023-06-12T09:27:33,42.805,6.029,CST-1368DR,4291,4692,11607,01.187,552
2023-06-12T09:30:35,42.805,6.029,CST-1368DR,4291,4688,11597,01.190,552
2023-06-12T09:33:37,42.805,6.029,CST-1368DR,4291,4684,11587,01.194,552
2023-06-12T09:36:38,42.805,6.029,CST-1368DR,4291,4686,11594,01.191,552
2023-06-12T09:39:40,42.805,6.029,CST-1368DR,4291,4683,11586,01.194,552
2023-06-12T09:42:41,42.805,6.029,CST-1368DR,4291,4682,11584,01.195,552
2023-06-12T09:45:43,42.805,6.029,CST-1368DR,4291,4683,11586,01.194,552
2023-06-12T09:48:44,42.805,6.029,CST-1368DR,4291,4683,11584,01.195,552
2023-06-12T09:51:46,42.805,6.029,CST-1368DR,4291,4683,11586,01.194,552
2023-06-12T09:54:48,42.805,6.029,CST-1368DR,4291,4685,11590,01.193,552
2023-06-12T09:57:49,42.805,6.029,CST-1368DR,4291,4665,11540,01.210,552
2023-06-12T10:00:51,42.805,6.029,CST-1368DR,4291,4695,11615,01.184,552
2023-06-12T10:03:52,42.805,6.029,CST-1368DR,4291,4697,11620,01.182,552
2023-06-12T10:06:54,42.805,6.029,CST-1368DR,4291,4693,11610,01.186,552
2023-06-12T10:09:56,42.805,6.029,CST-1368DR,4291,4691,11605,01.187,552
2023-06-12T10:12:57,42.805,6.029,CST-1368DR,4291,4697,11619,01.183,552
2023-06-12T10:15:59,42.805,6.029,CST-1368DR,4291,4698,11622,01.182,552
2023-06-12T10:19:00,42.805,6.029,CST-1368DR,4291,4690,11604,01.188,552
2023-06-12T10:22:02,42.805,6.029,CST-1368DR,4291,4690,11602,01.188,552
2023-06-12T10:25:03,42.805,6.029,CST-1368DR,4291,4702,11631,01.178,552
2023-06-12T10:28:05,42.805,6.029,CST-1368DR,4291,4702,11631,01.178,552
2023-06-12T10:31:08,42.805,6.029,CST-1368DR,4291,4703,11635,01.177,552
2023-06-12T10:34:09,42.805,6.029,CST-1368DR,4291,4689,11600,01.189,552
2023-06-12T10:37:11,42.805,6.029,CST-1368DR,4291,4693,11610,01.186,552
2023-06-12T10:40:12,42.805,6.029,CST-1368DR,4291,4696,11617,01.183,552
2023-06-12T10:43:14,42.805,6.029,CST-1368DR,4291,4705,11639,01.176,552
2023-06-12T10:46:16,42.805,6.029,CST-1368DR,4291,4688,11598,01.190,552
2023-06-12T10:49:17,42.805,6.029,CST-1368DR,4291,4693,11611,01.185,552
2023-06-12T10:52:19,42.805,6.029,CST-1368DR,4291,4693,11609,01.186,552
2023-06-12T10:55:20,42.805,6.029,CST-1368DR,4291,4698,11622,01.182,552
2023-06-12T10:58:22,42.805,6.029,CST-1368DR,4291,4695,11614,01.184,552
2023-06-12T11:01:23,42.805,6.029,CST-1368DR,4291,4688,11597,01.190,552
2023-06-12T11:04:25,42.805,6.029,CST-1368DR,4291,4693,11610,01.186,552
2023-06-12T11:07:27,42.805,6.029,CST-1368DR,4291,4695,11615,01.184,552
2023-06-12T11:10:28,42.805,6.029,CST-1368DR,4291,4690,11604,01.188,552
2023-06-12T11:13:30,42.805,6.029,CST-1368DR,4291,4696,11617,01.183,552
2023-06-12T11:16:31,42.805,6.029,CST-1368DR,4291,4695,11616,01.184,552
2023-06-12T11:19:33,42.805,6.029,CST-1368DR,4291,4690,11604,01.188,552
2023-06-12T11:22:34,42.805,6.029,CST-1368DR,4291,4696,11617,01.183,552
2023-06-12T11:25:36,42.805,6.029,CST-1368DR,4291,4696,11617,01.183,552
2023-06-12T11:28:38,42.805,6.029,CST-1368DR,4291,4702,11632,01.178,552
2023-06-12T11:31:39,42.805,6.029,CST-1368DR,4291,4698,11622,01.182,552
2023-06-12T11:34:41,42.805,6.029,CST-1368DR,4291,4699,11626,01.180,552
2023-06-12T11:37:42,42.805,6.029,CST-1368DR,4291,4693,11611,01.185,552
2023-06-12T11:40:44,42.805,6.029,CST-1368DR,4291,4697,11620,01.182,552
2023-06-12T11:43:46,42.805,6.029,CST-1368DR,4291,4696,11617,01.183,552
2023-06-12T11:46:47,42.805,6.029,CST-1368DR,4291,4693,11611,01.185,552
2023-06-12T11:49:49,42.805,6.029,CST-1368DR,4291,4692,11607,01.187,552
2023-06-12T11:52:50,42.805,6.029,CST-1368DR,4291,4695,11615,01.184,552
2023-06-12T11:55:52,42.805,6.029,CST-1368DR,4291,4693,11609,01.186,552
2023-06-12T11:58:53,42.805,6.029,CST-1368DR,4291,4690,11602,01.188,552
2023-06-12T12:01:55,42.805,6.029,CST-1368DR,4291,4689,11600,01.189,552
2023-06-12T12:04:57,42.805,6.029,CST-1368DR,4291,4689,11600,01.189,552
2023-06-12T12:07:58,42.805,6.029,CST-1368DR,4291,4692,11607,01.187,552
2023-06-12T12:11:00,42.805,6.029,CST-1368DR,4291,4690,11602,01.188,552
2023-06-12T12:14:01,42.805,6.029,CST-1368DR,4291,4692,11607,01.187,552
2023-06-12T12:17:03,42.805,6.029,CST-1368DR,4291,4687,11596,01.191,552
2023-06-12T12:20:04,42.805,6.029,CST-1368DR,4291,4685,11591,01.192,552
2023-06-12T12:23:06,42.805,6.029,CST-1368DR,4291,4690,11602,01.188,552
2023-06-12T12:26:08,42.805,6.029,CST-1368DR,4291,4689,11599,01.190,552
2023-06-12T12:29:09,42.805,6.029,CST-1368DR,4291,4687,11596,01.191,552
2023-06-12T12:32:11,42.805,6.029,CST-1368DR,4291,4687,11596,01.191,552
2023-06-12T12:35:12,42.805,6.029,CST-1368DR,4291,4692,11609,01.186,552
2023-06-12T12:38:14,42.805,6.029,CST-1368DR,4291,4689,11600,01.189,552
2023-06-12T12:41:16,42.805,6.029,CST-1368DR,4291,4690,11604,01.188,552
2023-06-12T12:44:17,42.805,6.029,CST-1368DR,4291,4687,11596,01.191,552
2023-06-12T12:47:19,42.805,6.029,CST-1368DR,4291,4689,11600,01.189,552
2023-06-12T12:50:20,42.805,6.029,CST-1368DR,4291,4689,11601,01.189,552
2023-06-12T12:53:22,42.805,6.029,CST-1368DR,4291,4689,11600,01.189,552
2023-06-12T12:56:23,42.805,6.029,CST-1368DR,4291,4687,11595,01.191,552
2023-06-12T12:59:25,42.805,6.029,CST-1368DR,4291,4688,11599,01.190,552
2023-06-12T13:02:27,42.805,6.029,CST-1368DR,4291,4691,11605,01.187,552
2023-06-12T13:05:28,42.805,6.029,CST-1368DR,4291,4690,11602,01.188,552
2023-06-12T13:08:30,42.805,6.029,CST-1368DR,4291,4681,11581,01.196,552
2023-06-12T13:11:31,42.805,6.029,CST-1368DR,4291,4688,11599,01.190,552
2023-06-12T13:14:33,42.805,6.029,CST-1368DR,4291,4686,11593,01.192,552
2023-06-12T13:17:34,42.805,6.029,CST-1368DR,4291,4689,11599,01.190,552
2023-06-12T13:20:36,42.805,6.029,CST-1368DR,4291,4686,11593,01.192,552
2023-06-12T13:23:38,42.805,6.029,CST-1368DR,4291,4688,11597,01.190,552
2023-06-12T13:26:39,42.805,6.029,CST-1368DR,4291,4686,11594,01.191,552
2023-06-12T13:29:41,42.805,6.029,CST-1368DR,4291,4687,11594,01.191,552
2023-06-12T13:32:42,42.805,6.029,CST-1368DR,4291,4683,11585,01.194,552
2023-06-12T13:35:44,42.805,6.029,CST-1368DR,4291,4684,11589,01.193,552
2023-06-12T13:38:46,42.805,6.029,CST-1368DR,4291,4686,11592,01.192,552
2023-06-12T13:41:47,42.805,6.029,CST-1368DR,4291,4686,11593,01.192,552
2023-06-12T13:44:49,42.805,6.029,CST-1368DR,4291,4689,11600,01.189,552
2023-06-12T13:47:50,42.805,6.029,CST-1368DR,4291,4689,11599,01.190,552
2023-06-12T13:50:52,42.805,6.029,CST-1368DR,4291,4686,11592,01.192,552
2023-06-12T13:53:53,42.805,6.029,CST-1368DR,4291,4688,11597,01.190,552
2023-06-12T13:56:55,42.805,6.029,CST-1368DR,4291,4689,11599,01.190,552
2023-06-12T13:59:57,42.805,6.029,CST-1368DR,4291,4686,11594,01.191,552
2023-06-12T14:02:58,42.805,6.029,CST-1368DR,4291,4689,11600,01.189,552
2023-06-12T14:06:00,42.805,6.029,CST-1368DR,4291,4688,11598,01.190,552
2023-06-12T14:09:01,42.805,6.029,CST-1368DR,4291,4688,11597,01.190,552
2023-06-12T14:12:03,42.805,6.029,CST-1368DR,4291,4688,11598,01.190,552
2023-06-12T14:15:04,42.805,6.029,CST-1368DR,4291,4687,11594,01.191,552
2023-06-12T14:18:06,42.805,6.029,CST-1368DR,4291,4689,11599,01.190,552
2023-06-12T14:21:08,42.805,6.029,CST-1368DR,4291,4689,11599,01.190,552
2023-06-12T14:24:09,42.805,6.029,CST-1368DR,4291,4686,11592,01.192,552
2023-06-12T14:27:11,42.805,6.029,CST-1368DR,4291,4688,11597,01.190,552
2023-06-12T14:30:14,42.805,6.029,CST-1368DR,4291,4688,11598,01.190,552
2023-06-12T14:33:16,42.805,6.029,CST-1368DR,4291,4689,11599,01.190,552
2023-06-12T14:36:17,42.805,6.029,CST-1368DR,4291,4690,11603,01.188,552
2023-06-12T14:39:19,42.805,6.029,CST-1368DR,4291,4686,11592,01.192,552
2023-06-12T14:42:20,42.805,6.029,CST-1368DR,4291,4687,11594,01.191,552
2023-06-12T14:45:22,42.805,6.029,CST-1368DR,4291,4689,11600,01.189,552
2023-06-12T14:48:24,42.805,6.029,CST-1368DR,4291,4688,11597,01.190,552
2023-06-12T14:51:25,42.805,6.029,CST-1368DR,4291,4686,11592,01.192,552
2023-06-12T14:54:27,42.805,6.029,CST-1368DR,4291,4688,11597,01.190,552
2023-06-12T14:57:28,42.805,6.029,CST-1368DR,4291,4688,11597,01.190,552
2023-06-12T15:00:30,42.805,6.029,CST-1368DR,4291,4688,11598,01.190,552
2023-06-12T15:03:31,42.805,6.029,CST-1368DR,4291,4688,11597,01.190,552
2023-06-12T15:06:33,42.805,6.029,CST-1368DR,4291,4687,11596,01.191,552
2023-06-12T15:09:35,42.805,6.029,CST-1368DR,4290,4685,11592,01.192,552
2023-06-12T15:12:36,42.805,6.029,CST-1368DR,4290,4683,11588,01.193,552
2023-06-12T15:15:38,42.805,6.029,CST-1368DR,4291,4685,11589,01.193,552
2023-06-12T15:18:39,42.805,6.029,CST-1368DR,4290,4684,11591,01.192,552
2023-06-12T15:21:41,42.805,6.029,CST-1368DR,4291,4684,11588,01.193,552
2023-06-12T15:24:43,42.805,6.029,CST-1368DR,4290,4684,11591,01.192,552
2023-06-12T15:27:44,42.805,6.029,CST-1368DR,4290,4683,11588,01.193,552
2023-06-12T15:30:46,42.805,6.029,CST-1368DR,4290,4683,11588,01.193,552
2023-06-12T15:33:47,42.805,6.029,CST-1368DR,4291,4684,11588,01.193,552
2023-06-12T15:36:49,42.805,6.029,CST-1368DR,4291,4684,11589,01.193,552
2023-06-12T15:39:50,42.805,6.029,CST-1368DR,4290,4684,11591,01.192,552
2023-06-12T15:42:52,42.805,6.029,CST-1368DR,4290,4684,11591,01.192,552
2023-06-12T15:45:54,42.805,6.029,CST-1368DR,4290,4680,11580,01.196,552
2023-06-12T15:48:55,42.805,6.029,CST-1368DR,4290,4681,11583,01.195,552
2023-06-12T15:51:57,42.805,6.029,CST-1368DR,4291,4682,11583,01.195,552
2023-06-12T15:54:58,42.805,6.029,CST-1368DR,4290,4678,11576,01.197,552
2023-06-12T15:58:00,42.805,6.029,CST-1368DR,4290,4681,11583,01.195,552
2023-06-12T16:01:01,42.805,6.029,CST-1368DR,4290,4681,11583,01.195,552
2023-06-12T16:04:03,42.805,6.029,CST-1368DR,4290,4680,11581,01.196,552
2023-06-12T16:07:05,42.805,6.029,CST-1368DR,4290,4682,11585,01.194,552
2023-06-12T16:10:06,42.805,6.029,CST-1368DR,4291,4680,11579,01.196,552
2023-06-12T16:13:08,42.805,6.029,CST-1368DR,4290,4680,11580,01.196,552
2023-06-12T16:16:09,42.805,6.029,CST-1368DR,4290,4680,11581,01.196,552
2023-06-12T16:19:11,42.805,6.029,CST-1368DR,4290,4682,11586,01.194,552
2023-06-12T16:22:13,42.805,6.029,CST-1368DR,4291,4682,11582,01.195,552
2023-06-12T16:25:14,42.805,6.029,CST-1368DR,4290,4683,11589,01.193,552
2023-06-12T16:28:16,42.805,6.029,CST-1368DR,4291,4705,11639,01.176,552
2023-06-12T16:31:17,42.805,6.029,CST-1368DR,4291,4705,11640,01.175,552
2023-06-12T16:34:18,42.805,6.029,CST-1368DR,4291,4705,11641,01.175,552
2023-06-12T16:37:20,42.805,6.029,CST-1368DR,4291,4704,11638,01.176,552